Regional Weather Roundup
Issued by NWS New Orleans/Baton Rouge, LA

Home | Current Version | Previous Version | Text Only | Print | Product List | Glossary On
Versions: 1 2 3 4 5 6 7 8 9 10 11 12 13 14 15 16 17 18 19 20 21 22 23 24 25 26 27 28 29 30 31 32 33 34 35 36 37 38 39 40 41 42 43 44 45 46 47 48 49 50
000
ASUS44 KLIX 241613
RWRLIX
NEW ORLEANS REGIONAL WEATHER ROUNDUP
NATIONAL WEATHER SERVICE NEW ORLEANS LA
1000 AM CST SAT FEB 24 2018

NOTE: "FAIR" INDICATES FEW OR NO CLOUDS BELOW 12,000 FEET WITH NO
      SIGNIFICANT WEATHER AND/OR OBSTRUCTIONS TO VISIBILITY.
      SKY/WX - SKY CONDITION AND SIGNIFICANT WEATHER.
      TMP - AIR TEMPERATURE.     DP    - DEWPOINT TEMPERATURE.
      RH  - RELATIVE HUMIDITY.   PRES  - PRESSURE.
      HI  - HEAT INDEX.          WCI   - WIND CHILL INDEX.

*  THESE STATIONS ARE NOT NWS OR FAA STATIONS AND ARE NOT UNDER
   NWS QUALITY CONTROL.

LAZ038-040-048-061>063-065>067-069-241700-
SOUTHEAST LOUISIANA

CITY           SKY/WX    TMP DP  RH WIND       PRES   REMARKS
N.O. INTL ARPT PTSUNNY   79  72  79 S14G24    30.10F
N.O. LAKEFRONT FAIR      79  69  71 S16       30.11F
N.O. DOWNTOWN* PTSUNNY   78  69  73 S10G18    30.12S
RESERVE*       FAIR      81  70  69 S18       30.09F
SLIDELL        PTSUNNY   77  68  73 S17G23    30.11S
BATON ROUGE    PTSUNNY   78  69  73 S15       30.08S
BOOTHVILLE     FAIR      78  71  79 S10       30.14S HAZE
BELLE CHASSE   PTSUNNY   78  72  81 S17       30.11S
BOGALUSA*      CLOUDY    77  69  75 S8        30.12F
GALLIANO*      PTSUNNY   77  68  74 S14       30.11S
NEW ROADS*     PTSUNNY   76  68  76 S10G17    30.07F
GONZALES*      CLOUDY    76  69  79 S10       30.08S
HAMMOND*       CLOUDY    75  70  83 S15       30.10S
HOUMA*         PTSUNNY   79  72  78 S14G21    30.10S
PORT FOURCHON* PTSUNNY   77  72  83 S10       30.12R

$$

MSZ070-080>082-241700-
SOUTHERN MISSISSIPPI

CITY           SKY/WX    TMP DP  RH WIND       PRES   REMARKS
MCCOMB         CLOUDY    75  68  78 S16       30.09F
GULFPORT       FAIR      77  70  79 SE12      30.13S
BILOXI         FAIR      76  70  81 S9        30.14R
PASCAGOULA     PTSUNNY   77  67  71 S9        30.15R
STENNIS ARPT*  MOSUNNY   79  70  73 S13       30.12F

$$

COASTAL OBSERVATIONS
LAKE AND NEARSHORE STATIONS

STATION/POSITION TIME  SKY/WX   TEMP    WIND        PRES    WAVE
                                AIR SEA DIR/SP/G            HT/PER
                 (UTC)          (F)     (DEG/KT/KT) (MB)    (FT/S)
WAVELAND YACHT   1542            74 73  170/  9/ 12 1020.6
GRAND ISLE       1542            76 71  160/  5/ 11 1020.0
SOUTHWEST PASS   1542            72 49  170/ 15/ 16 1020.7
NEW CANAL        1542            78 66  180/  8/ 12 1019.5
SHELL BEACH      1542            77 77  160/ 15/ 20 1020.1

OFFSHORE STATIONS

STATION/POSITION TIME  SKY/WX   TEMP    WIND        PRES    WAVE
                                AIR SEA DIR/SP/G            HT/PER
                 (UTC)          (F)     (DEG/KT/KT) (MB)    (FT/S)
64 S DAUPHIN ISL 1540            74 65  150/ 16/ 19 1020.9

$$





USA.gov is the U.S. government's official web portal to all federal, state and local government web resources and services.